Flag for Germany Weather past 2 weeks in Bitterfeld-Wolfen, Saxony-Anhalt, Germany

Now
45 °F

Sprinkles. Broken clouds.


Feels Like: 35 °F
Forecast: 37 / 44 °F
Wind: 30 mph from Northwest

Location: Leipzig-Schkeuditz

Current Time: Mar 31, 2015 at 10:45:16 AM

Latest Report: Mar 31, 2015 at 10:20 AM


Visibility: 6 mi

Pressure: 29.18 "Hg

Humidity: 87%

Dew point: 41 °F

Location of Bitterfeld-WolfenLocation

Historic Weather in Bitterfeld-Wolfen — Graph

°F

Bitterfeld-Wolfen temperature yesterday

Maximum temperature yesterday: 48 °F (at 12:20 AM)
Minimum temperature yesterday: 36 °F (at 10:50 PM)
Average temperature yesterday: 43 °F

Past Weeks' High & Low Weather Summary

 TemperatureHumidityPressure
High63 °F (Mar 17, 2:50 PM)100% (Mar 21, 5:50 AM)30.36 "Hg (Mar 21, 5:50 AM)
Low25 °F (Mar 23, 2:50 AM)28% (Mar 19, 3:20 PM)29.12 "Hg (Mar 31, 9:20 AM)
Average44 °F74%29.97 "Hg
* Reported Mar 16 8:20 AM — Mar 31 9:50 AM, Bitterfeld-Wolfen, Weather by CustomWeather, © 2015

Note: Actual official high and low records may vary slightly from our data, if they occured in-between our weather recording intervals... More about our weather records

Advertising

Bitterfeld-Wolfen weather history for previous 24 hours

 ConditionsComfort  
Time TempWeatherWind HumidityBarometerVisibility
9:50 AM
Tue, Mar 31
50 °FScattered showers. Partly sunny.28 mph88%29.12 "HgN/A
9:20 AM46 °FBroken clouds.24 mph93%29.12 "HgN/A
8:50 AM43 °FLight rain. Partly sunny.22 mph100%29.15 "HgN/A
8:20 AM39 °FLight rain. Broken clouds.21 mph100%29.15 "HgN/A
7:50 AM36 °FLight rain. Broken clouds.18 mph100%29.18 "HgN/A
7:20 AM34 °FLight rain. Partly cloudy.18 mph100%29.24 "Hg5 mi
6:50 AM34 °FLight rain. Passing clouds.21 mph100%29.27 "Hg4 mi
6:20 AM34 °FLight rain. Fog.17 mph100%29.33 "Hg2 mi
5:50 AM34 °FLight rain. Fog.17 mph100%29.39 "Hg2 mi
5:20 AM34 °FLight rain. Mostly cloudy.18 mph100%29.42 "Hg3 mi
4:50 AM36 °FLight rain. Mostly cloudy.18 mph93%29.47 "HgN/A
4:20 AM37 °FLight rain. Mostly cloudy.22 mph87%29.53 "HgN/A
3:50 AM41 °FMostly cloudy.16 mph61%29.59 "HgN/A
3:20 AM41 °FMostly cloudy.13 mph61%29.62 "HgN/A
2:50 AM41 °FClear.15 mph66%29.65 "Hg10 mi
2:20 AM39 °FClear.17 mph70%29.68 "Hg10 mi
1:20 AM39 °FClear.15 mph75%29.71 "Hg10 mi
12:50 AM37 °FClear.20 mph81%29.71 "Hg10 mi
12:20 AM37 °FClear.15 mph81%29.74 "Hg10 mi
11:50 PM
Mon, Mar 30
37 °FClear.15 mph81%29.74 "Hg10 mi
11:20 PM37 °FClear.16 mph81%29.74 "Hg10 mi
10:50 PM36 °FClear.18 mph87%29.74 "Hg10 mi
10:20 PM37 °FClear.16 mph81%29.74 "Hg10 mi
9:50 PM37 °FClear.16 mph87%29.74 "Hg10 mi
9:20 PM37 °FClear.13 mph81%29.71 "Hg10 mi
8:50 PM39 °FPassing clouds.16 mph75%29.71 "HgN/A
8:20 PM41 °FScattered clouds.20 mph70%29.71 "HgN/A
7:50 PM43 °FScattered clouds.15 mph66%29.68 "HgN/A
7:20 PM43 °FScattered clouds.21 mph61%29.68 "HgN/A
6:50 PM45 °FBroken clouds.14 mph57%29.65 "HgN/A
6:20 PM45 °FBroken clouds.24 mph57%29.62 "HgN/A
5:50 PM45 °FScattered showers. Scattered clouds.24 mph66%29.59 "HgN/A
5:20 PM46 °FScattered showers. Scattered clouds.18 mph62%29.59 "HgN/A
4:50 PM46 °FScattered clouds.24 mph66%29.56 "HgN/A
4:20 PM46 °FScattered showers. Passing clouds.20 mph57%29.53 "HgN/A
3:50 PM43 °FSprinkles. Partly sunny.30 mph66%29.53 "HgN/A
3:20 PM46 °FSprinkles. Scattered clouds.21 mph62%29.50 "HgN/A
2:50 PM46 °FSprinkles. Partly sunny.33 mph53%29.50 "HgN/A
2:20 PM48 °FScattered showers. Broken clouds.30 mph50%29.47 "HgN/A
1:50 PM46 °FScattered showers. Partly sunny.28 mph53%29.47 "HgN/A
1:20 PM45 °FSprinkles. Partly sunny.29 mph71%29.45 "HgN/A
12:50 PM45 °FPartly sunny.31 mph71%29.42 "HgN/A
12:20 PM46 °FPartly sunny.31 mph66%29.42 "HgN/A
11:50 AM45 °FScattered clouds.29 mph71%29.42 "HgN/A
11:20 AM43 °FScattered showers. Broken clouds.26 mph71%29.42 "HgN/A
10:50 AM41 °FSprinkles. Broken clouds.30 mph81%29.39 "HgN/A
10:20 AM43 °FSprinkles. Partly sunny.35 mph71%29.36 "HgN/A
Weather by CustomWeather, © 2015

See weather overviewHow to use our weather pages